Time,TemperatureF,DewpointF,PressureIn,WindDirection,WindDirectionDegrees,WindSpeedMPH,WindSpeedGustMPH,Humidity,HourlyPrecipIn,Conditions,Clouds,dailyrainin,SoftwareType,DateUTC
2013-02-20 00:05:00,28.0,10.0,30.08,NNW,330,13.0,25.0,46,0.00,,,0.00,weatherlink.com 1.10,2013-02-20 05:05:00,
2013-02-20 00:20:00,27.6,10.0,30.10,WSW,252,4.0,25.0,47,0.00,,,0.00,weatherlink.com 1.10,2013-02-20 05:20:00,
2013-02-20 00:35:00,27.0,12.0,30.10,North,5,15.0,21.0,53,0.00,,,0.00,weatherlink.com 1.10,2013-02-20 05:35:00,
2013-02-20 00:50:00,26.5,12.0,30.10,NW,322,14.0,22.0,55,0.00,,,0.00,weatherlink.com 1.10,2013-02-20 05:50:00,
2013-02-20 01:06:00,26.2,13.0,30.10,North,5,11.0,23.0,57,0.00,,,0.00,weatherlink.com 1.10,2013-02-20 06:06:00,
2013-02-20 01:20:00,26.0,13.0,30.11,WNW,283,8.0,21.0,57,0.00,,,0.00,weatherlink.com 1.10,2013-02-20 06:20:00,
2013-02-20 01:35:00,25.7,13.0,30.11,NNE,26,4.0,20.0,59,0.00,,,0.00,weatherlink.com 1.10,2013-02-20 06:35:00,
2013-02-20 01:50:00,25.5,13.0,30.10,NNW,340,9.0,29.0,60,0.00,,,0.00,weatherlink.com 1.10,2013-02-20 06:50:00,
2013-02-20 02:05:00,25.2,13.0,30.10,NNE,20,5.0,23.0,60,0.00,,,0.00,weatherlink.com 1.10,2013-02-20 07:05:00,
2013-02-20 02:20:00,25.1,13.0,30.09,North,5,5.0,18.0,60,0.00,,,0.00,weatherlink.com 1.10,2013-02-20 07:20:00,
2013-02-20 02:35:00,24.9,13.0,30.09,NNE,13,2.0,26.0,61,0.00,,,0.00,weatherlink.com 1.10,2013-02-20 07:35:00,
2013-02-20 02:50:00,24.7,13.0,30.09,NNE,29,2.0,21.0,61,0.00,,,0.00,weatherlink.com 1.10,2013-02-20 07:50:00,
2013-02-20 03:05:00,24.5,13.0,30.09,North,355,9.0,19.0,62,0.00,,,0.00,weatherlink.com 1.10,2013-02-20 08:05:00,
2013-02-20 03:20:00,24.3,13.0,30.09,NNW,339,10.0,23.0,63,0.00,,,0.00,weatherlink.com 1.10,2013-02-20 08:20:00,
2013-02-20 03:35:00,24.2,12.0,30.09,NW,311,9.0,36.0,60,0.00,,,0.00,weatherlink.com 1.10,2013-02-20 08:35:00,
2013-02-20 03:50:00,24.1,12.0,30.08,NNW,338,5.0,28.0,59,0.00,,,0.00,weatherlink.com 1.10,2013-02-20 08:50:00,
2013-02-20 04:05:00,24.2,11.0,30.07,NNW,327,9.0,25.0,57,0.00,,,0.00,weatherlink.com 1.10,2013-02-20 09:05:00,
2013-02-20 04:20:00,24.3,10.0,30.07,NE,35,6.0,26.0,55,0.00,,,0.00,weatherlink.com 1.10,2013-02-20 09:20:00,
2013-02-20 04:35:00,24.3,10.0,30.08,North,10,11.0,19.0,55,0.00,,,0.00,weatherlink.com 1.10,2013-02-20 09:35:00,
2013-02-20 04:50:00,24.6,9.0,30.08,North,9,8.0,27.0,52,0.00,,,0.00,weatherlink.com 1.10,2013-02-20 09:50:00,
2013-02-20 05:05:00,24.4,9.0,30.09,NW,325,8.0,25.0,51,0.00,,,0.00,weatherlink.com 1.10,2013-02-20 10:05:00,
2013-02-20 05:20:00,24.4,9.0,30.07,North,5,10.0,23.0,51,0.00,,,0.00,weatherlink.com 1.10,2013-02-20 10:20:00,
2013-02-20 05:35:00,24.5,8.0,30.08,NNW,327,5.0,26.0,49,0.00,,,0.00,weatherlink.com 1.10,2013-02-20 10:35:00,
2013-02-20 05:50:00,24.4,7.0,30.08,NNE,23,13.0,27.0,48,0.00,,,0.00,weatherlink.com 1.10,2013-02-20 10:50:00,
2013-02-20 06:05:00,24.8,7.0,30.08,NW,325,8.0,25.0,46,0.00,,,0.00,weatherlink.com 1.10,2013-02-20 11:05:00,
2013-02-20 06:20:00,25.2,6.0,30.07,NNW,341,13.0,33.0,44,0.00,,,0.00,weatherlink.com 1.10,2013-02-20 11:20:00,
2013-02-20 06:35:00,25.0,7.0,30.09,WNW,300,24.0,25.0,46,0.00,,,0.00,weatherlink.com 1.10,2013-02-20 11:35:00,
2013-02-20 06:50:00,25.1,5.0,30.09,NNE,26,8.0,25.0,43,0.00,,,0.00,weatherlink.com 1.10,2013-02-20 11:50:00,
2013-02-20 07:06:00,25.1,6.0,30.10,NNE,15,12.0,29.0,45,0.00,,,0.00,weatherlink.com 1.10,2013-02-20 12:06:00,
2013-02-20 07:20:00,25.1,6.0,30.10,NNW,328,6.0,28.0,45,0.00,,,0.00,weatherlink.com 1.10,2013-02-20 12:20:00,
2013-02-20 07:35:00,25.8,5.0,30.12,North,360,8.0,29.0,42,0.00,,,0.00,weatherlink.com 1.10,2013-02-20 12:35:00,
2013-02-20 07:50:00,26.1,6.0,30.12,NW,304,17.0,21.0,42,0.00,,,0.00,weatherlink.com 1.10,2013-02-20 12:50:00,
2013-02-20 08:05:00,26.3,8.0,30.12,NW,314,7.0,21.0,45,0.00,,,0.00,weatherlink.com 1.10,2013-02-20 13:05:00,
2013-02-20 08:20:00,26.8,7.0,30.13,NNW,336,11.0,22.0,43,0.00,,,0.00,weatherlink.com 1.10,2013-02-20 13:20:00,
2013-02-20 08:35:00,27.5,7.0,30.14,North,5,5.0,21.0,41,0.00,,,0.00,weatherlink.com 1.10,2013-02-20 13:35:00,
2013-02-20 08:50:00,28.2,7.0,30.14,North,355,6.0,22.0,40,0.00,,,0.00,weatherlink.com 1.10,2013-02-20 13:50:00,
2013-02-20 09:05:00,29.2,5.0,30.14,NNW,343,11.0,24.0,36,0.00,,,0.00,weatherlink.com 1.10,2013-02-20 14:05:00,
2013-02-20 09:20:00,29.6,5.0,30.15,NNW,340,12.0,31.0,35,0.00,,,0.00,weatherlink.com 1.10,2013-02-20 14:20:00,
2013-02-20 09:36:00,30.6,5.0,30.15,NNW,330,8.0,16.0,34,0.00,,,0.00,weatherlink.com 1.10,2013-02-20 14:36:00,
2013-02-20 09:51:00,30.8,5.0,30.16,NNE,17,6.0,27.0,33,0.00,,,0.00,weatherlink.com 1.10,2013-02-20 14:51:00,
2013-02-20 10:06:00,31.9,5.0,30.17,NE,37,6.0,25.0,32,0.00,,,0.00,weatherlink.com 1.10,2013-02-20 15:06:00,
2013-02-20 10:21:00,32.6,3.0,30.18,North,355,12.0,22.0,29,0.00,,,0.00,weatherlink.com 1.10,2013-02-20 15:21:00,
2013-02-20 10:35:00,33.2,4.0,30.19,North,350,3.0,22.0,29,0.00,,,0.00,weatherlink.com 1.10,2013-02-20 15:35:00,
2013-02-20 10:51:00,33.7,4.0,30.19,North,5,10.0,22.0,28,0.00,,,0.00,weatherlink.com 1.10,2013-02-20 15:51:00,
2013-02-20 11:05:00,34.3,5.0,30.19,WSW,258,6.0,23.0,29,0.00,,,0.00,weatherlink.com 1.10,2013-02-20 16:05:00,
2013-02-20 11:21:00,34.8,4.0,30.20,West,259,10.0,19.0,27,0.00,,,0.00,weatherlink.com 1.10,2013-02-20 16:21:00,
2013-02-20 11:36:00,35.6,5.0,30.21,NNW,334,3.0,16.0,28,0.00,,,0.00,weatherlink.com 1.10,2013-02-20 16:36:00,
2013-02-20 11:51:00,36.1,7.0,30.21,WNW,300,13.0,17.0,29,0.00,,,0.00,weatherlink.com 1.10,2013-02-20 16:51:00,
2013-02-20 12:06:00,35.6,8.0,30.20,North,351,13.0,20.0,32,0.00,,,0.00,weatherlink.com 1.10,2013-02-20 17:06:00,
2013-02-20 12:21:00,36.8,9.0,30.21,WNW,297,7.0,20.0,31,0.00,,,0.00,weatherlink.com 1.10,2013-02-20 17:21:00,
2013-02-20 12:36:00,37.2,8.0,30.20,WSW,254,4.0,18.0,30,0.00,,,0.00,weatherlink.com 1.10,2013-02-20 17:36:00,
2013-02-20 12:51:00,37.3,8.0,30.20,NW,315,3.0,18.0,29,0.00,,,0.00,weatherlink.com 1.10,2013-02-20 17:51:00,
2013-02-20 13:06:00,38.1,7.0,30.21,NW,319,9.0,23.0,27,0.00,,,0.00,weatherlink.com 1.10,2013-02-20 18:06:00,
2013-02-20 13:21:00,38.6,9.0,30.20,WNW,300,5.0,22.0,29,0.00,,,0.00,weatherlink.com 1.10,2013-02-20 18:21:00,
2013-02-20 13:36:00,38.4,7.0,30.19,NNW,331,12.0,26.0,27,0.00,,,0.00,weatherlink.com 1.10,2013-02-20 18:36:00,
2013-02-20 13:51:00,38.7,7.0,30.20,NNW,342,7.0,16.0,27,0.00,,,0.00,weatherlink.com 1.10,2013-02-20 18:51:00,
2013-02-20 14:06:00,39.3,6.0,30.20,WNW,284,11.0,20.0,25,0.00,,,0.00,weatherlink.com 1.10,2013-02-20 19:06:00,
2013-02-20 14:21:00,39.1,8.0,30.20,NNW,344,10.0,18.0,27,0.00,,,0.00,weatherlink.com 1.10,2013-02-20 19:21:00,
2013-02-20 14:36:00,38.3,7.0,30.20,WNW,299,7.0,16.0,27,0.00,,,0.00,weatherlink.com 1.10,2013-02-20 19:36:00,
2013-02-20 14:51:00,38.6,7.0,30.20,NNE,22,5.0,16.0,27,0.00,,,0.00,weatherlink.com 1.10,2013-02-20 19:51:00,
2013-02-20 15:06:00,38.8,7.0,30.20,West,280,6.0,15.0,27,0.00,,,0.00,weatherlink.com 1.10,2013-02-20 20:06:00,
2013-02-20 15:21:00,38.0,5.0,30.21,NNW,336,13.0,14.0,25,0.00,,,0.00,weatherlink.com 1.10,2013-02-20 20:21:00,
2013-02-20 15:36:00,37.6,7.0,30.21,SE,138,1.0,14.0,28,0.00,,,0.00,weatherlink.com 1.10,2013-02-20 20:36:00,
2013-02-20 15:51:00,37.8,6.0,30.21,NW,323,12.0,15.0,27,0.00,,,0.00,weatherlink.com 1.10,2013-02-20 20:51:00,
2013-02-20 16:07:00,37.0,6.0,30.21,North,5,5.0,11.0,27,0.00,,,0.00,weatherlink.com 1.10,2013-02-20 21:07:00,
2013-02-20 16:22:00,36.4,5.0,30.22,NNE,27,9.0,17.0,27,0.00,,,0.00,weatherlink.com 1.10,2013-02-20 21:22:00,
2013-02-20 16:37:00,36.2,6.0,30.21,NNW,334,6.0,16.0,28,0.00,,,0.00,weatherlink.com 1.10,2013-02-20 21:37:00,
2013-02-20 16:52:00,35.3,5.0,30.22,NNW,340,7.0,15.0,28,0.00,,,0.00,weatherlink.com 1.10,2013-02-20 21:52:00,
2013-02-20 17:07:00,34.3,6.0,30.23,ENE,67,3.0,18.0,31,0.00,,,0.00,weatherlink.com 1.10,2013-02-20 22:07:00,
2013-02-20 17:22:00,33.7,6.0,30.23,NW,317,9.0,13.0,31,0.00,,,0.00,weatherlink.com 1.10,2013-02-20 22:22:00,
2013-02-20 17:37:00,33.2,6.0,30.24,North,350,5.0,16.0,32,0.00,,,0.00,weatherlink.com 1.10,2013-02-20 22:37:00,
2013-02-20 17:52:00,32.6,5.0,30.25,NNW,339,4.0,15.0,31,0.00,,,0.00,weatherlink.com 1.10,2013-02-20 22:52:00,
2013-02-20 18:07:00,31.9,5.0,30.25,NW,312,8.0,15.0,32,0.00,,,0.00,weatherlink.com 1.10,2013-02-20 23:07:00,
2013-02-20 18:22:00,31.1,5.0,30.26,NNW,340,6.0,21.0,33,0.00,,,0.00,weatherlink.com 1.10,2013-02-20 23:22:00,
2013-02-20 18:37:00,30.6,4.0,30.26,NW,318,4.0,18.0,32,0.00,,,0.00,weatherlink.com 1.10,2013-02-20 23:37:00,
2013-02-20 18:52:00,30.2,4.0,30.26,NNE,20,5.0,15.0,33,0.00,,,0.00,weatherlink.com 1.10,2013-02-20 23:52:00,
2013-02-20 19:07:00,29.9,6.0,30.25,WSW,242,4.0,18.0,36,0.00,,,0.00,weatherlink.com 1.10,2013-02-21 00:07:00,
2013-02-20 19:22:00,29.7,6.0,30.24,NW,312,5.0,20.0,36,0.00,,,0.00,weatherlink.com 1.10,2013-02-21 00:22:00,
2013-02-20 19:37:00,29.6,6.0,30.25,North,5,3.0,19.0,37,0.00,,,0.00,weatherlink.com 1.10,2013-02-21 00:37:00,
2013-02-20 19:52:00,29.4,6.0,30.26,WNW,298,8.0,16.0,37,0.00,,,0.00,weatherlink.com 1.10,2013-02-21 00:52:00,
2013-02-20 20:07:00,29.3,5.0,30.25,West,267,10.0,22.0,36,0.00,,,0.00,weatherlink.com 1.10,2013-02-21 01:07:00,
2013-02-20 20:22:00,28.9,6.0,30.25,NW,312,13.0,21.0,37,0.00,,,0.00,weatherlink.com 1.10,2013-02-21 01:22:00,
2013-02-20 20:37:00,28.5,5.0,30.25,WNW,302,10.0,22.0,37,0.00,,,0.00,weatherlink.com 1.10,2013-02-21 01:37:00,
2013-02-20 20:52:00,28.2,5.0,30.25,NW,314,6.0,20.0,38,0.00,,,0.00,weatherlink.com 1.10,2013-02-21 01:52:00,
2013-02-20 21:08:00,27.9,6.0,30.25,NW,315,13.0,18.0,39,0.00,,,0.00,weatherlink.com 1.10,2013-02-21 02:08:00,
2013-02-20 21:23:00,28.0,5.0,30.25,NNW,331,9.0,18.0,38,0.00,,,0.00,weatherlink.com 1.10,2013-02-21 02:23:00,
2013-02-20 21:38:00,27.8,5.0,30.26,NW,310,12.0,21.0,38,0.00,,,0.00,weatherlink.com 1.10,2013-02-21 02:38:00,
2013-02-20 21:53:00,27.6,6.0,30.26,North,360,5.0,21.0,39,0.00,,,0.00,weatherlink.com 1.10,2013-02-21 02:53:00,
2013-02-20 22:07:00,27.1,6.0,30.27,NNE,21,5.0,16.0,41,0.00,,,0.00,weatherlink.com 1.10,2013-02-21 03:07:00,
2013-02-20 22:22:00,27.0,6.0,30.27,NNE,29,8.0,22.0,41,0.00,,,0.00,weatherlink.com 1.10,2013-02-21 03:22:00,
2013-02-20 22:37:00,26.9,6.0,30.27,NNE,15,5.0,13.0,41,0.00,,,0.00,weatherlink.com 1.10,2013-02-21 03:37:00,
2013-02-20 22:52:00,27.1,4.0,30.29,ESE,105,1.0,7.0,38,0.00,,,0.00,weatherlink.com 1.10,2013-02-21 03:52:00,
2013-02-20 23:08:00,27.6,4.0,30.26,NW,306,3.0,11.0,36,0.00,,,0.00,weatherlink.com 1.10,2013-02-21 04:08:00,
2013-02-20 23:23:00,27.1,6.0,30.25,North,11,6.0,14.0,41,0.00,,,0.00,weatherlink.com 1.10,2013-02-21 04:23:00,
2013-02-20 23:38:00,26.0,9.0,30.25,West,266,3.0,15.0,48,0.00,,,0.00,weatherlink.com 1.10,2013-02-21 04:38:00,
2013-02-20 23:53:00,25.6,8.0,30.26,West,267,0.0,12.0,48,0.00,,,0.00,weatherlink.com 1.10,2013-02-21 04:53:00,